Time,TemperatureF,DewpointF,PressureIn,WindDirection,WindDirectionDegrees,WindSpeedMPH,WindSpeedGustMPH,Humidity,HourlyPrecipIn,Conditions,Clouds,dailyrainin,SolarRadiationWatts/m^2,SoftwareType,DateUTC
2013-09-24 00:23:00,44.0,43.0,-100.00,ESE,106,0.0,1.0,98,-99.99,,,0.00,0.000000,,2013-09-24 04:23:00,
2013-09-24 00:54:00,44.0,43.0,-100.00,ESE,106,0.0,1.0,98,-99.99,,,0.00,0.000000,,2013-09-24 04:54:00,
2013-09-24 01:03:00,44.0,43.0,-100.00,ESE,106,0.0,1.0,98,-99.99,,,0.00,0.000000,,2013-09-24 05:03:00,
2013-09-24 01:13:00,44.0,43.0,-100.00,ESE,106,0.0,1.0,98,-99.99,,,0.00,0.000000,,2013-09-24 05:13:00,
2013-09-24 01:53:00,43.0,42.0,-100.00,East,82,0.0,0.0,98,0.00,,,0.00,0.000000,,2013-09-24 05:53:00,
2013-09-24 02:03:00,43.0,42.0,-100.00,East,82,0.0,0.0,98,0.00,,,0.00,0.000000,,2013-09-24 06:03:00,
2013-09-24 02:13:00,43.0,42.0,-100.00,East,82,0.0,0.0,98,0.00,,,0.00,0.000000,,2013-09-24 06:13:00,
2013-09-24 02:22:00,43.0,42.0,-100.00,East,82,0.0,0.0,98,0.00,,,0.00,0.000000,,2013-09-24 06:22:00,
2013-09-24 02:52:00,42.0,41.0,-100.00,WNW,299,0.0,1.0,98,0.00,,,0.00,0.000000,,2013-09-24 06:52:00,
2013-09-24 03:03:00,42.0,41.0,-100.00,WNW,299,0.0,1.0,98,0.00,,,0.00,0.000000,,2013-09-24 07:03:00,
2013-09-24 03:12:00,42.0,41.0,-100.00,WNW,299,0.0,1.0,98,0.00,,,0.00,0.000000,,2013-09-24 07:12:00,
2013-09-24 03:22:00,42.0,41.0,-100.00,WNW,299,0.0,1.0,98,0.00,,,0.00,0.000000,,2013-09-24 07:22:00,
2013-09-24 03:23:00,41.0,40.0,-100.00,WSW,257,0.0,0.0,98,0.00,,,-99.99,0.000000,,2013-09-24 07:23:00,
2013-09-24 03:52:00,41.0,40.0,-100.00,WSW,257,0.0,0.0,98,0.00,,,-99.99,0.000000,,2013-09-24 07:52:00,
2013-09-24 04:02:00,41.0,40.0,-100.00,WSW,257,0.0,0.0,98,0.00,,,-99.99,0.000000,,2013-09-24 08:02:00,
2013-09-24 04:11:00,41.0,40.0,-100.00,WSW,257,0.0,0.0,98,0.00,,,-99.99,0.000000,,2013-09-24 08:11:00,
2013-09-24 04:52:00,40.0,39.0,-100.00,WSW,251,0.0,0.0,98,0.00,,,-99.99,0.000000,,2013-09-24 08:52:00,
2013-09-24 05:02:00,40.0,39.0,-100.00,WSW,251,0.0,0.0,98,0.00,,,-99.99,0.000000,,2013-09-24 09:02:00,
2013-09-24 05:12:00,40.0,39.0,-100.00,WSW,251,0.0,0.0,98,0.00,,,-99.99,0.000000,,2013-09-24 09:12:00,
2013-09-24 05:21:00,40.0,39.0,-100.00,WSW,251,0.0,0.0,98,0.00,,,-99.99,0.000000,,2013-09-24 09:21:00,
2013-09-24 05:23:00,40.0,39.0,-100.00,SE,125,1.0,2.0,98,0.00,,,0.00,0.000000,,2013-09-24 09:23:00,
2013-09-24 05:54:00,40.0,39.0,-100.00,SE,125,1.0,2.0,98,0.00,,,0.00,0.000000,,2013-09-24 09:54:00,
2013-09-24 06:03:00,40.0,39.0,-100.00,SE,125,1.0,2.0,98,0.00,,,0.00,0.000000,,2013-09-24 10:03:00,
2013-09-24 06:13:00,40.0,39.0,-100.00,SE,125,1.0,2.0,98,0.00,,,0.00,0.000000,,2013-09-24 10:13:00,
2013-09-24 06:53:00,39.0,38.0,-100.00,SSW,206,0.0,0.0,98,0.00,,,-99.99,0.000000,,2013-09-24 10:53:00,
2013-09-24 07:03:00,39.0,38.0,-100.00,SSW,206,0.0,0.0,98,0.00,,,-99.99,0.000000,,2013-09-24 11:03:00,
2013-09-24 07:11:00,39.0,38.0,-100.00,SSW,206,0.0,0.0,98,0.00,,,-99.99,0.000000,,2013-09-24 11:11:00,
2013-09-24 07:22:00,39.0,38.0,-100.00,SSW,206,0.0,0.0,98,0.00,,,-99.99,0.000000,,2013-09-24 11:22:00,
2013-09-24 07:52:00,39.0,38.0,-100.00,South,185,0.0,0.0,98,0.00,,,-99.99,1.000000,,2013-09-24 11:52:00,
2013-09-24 08:01:00,39.0,38.0,-100.00,South,185,0.0,0.0,98,0.00,,,-99.99,1.000000,,2013-09-24 12:01:00,
2013-09-24 08:12:00,39.0,38.0,-100.00,South,185,0.0,0.0,98,0.00,,,-99.99,1.000000,,2013-09-24 12:12:00,
2013-09-24 08:22:00,39.0,38.0,-100.00,South,185,0.0,0.0,98,0.00,,,-99.99,1.000000,,2013-09-24 12:22:00,
2013-09-24 08:52:00,39.0,38.0,-100.00,SW,229,0.0,0.0,98,0.00,,,0.00,14.000000,,2013-09-24 12:52:00,
2013-09-24 09:02:00,39.0,38.0,-100.00,SW,229,0.0,0.0,98,0.00,,,0.00,14.000000,,2013-09-24 13:02:00,
2013-09-24 09:11:00,39.0,38.0,-100.00,SW,229,0.0,0.0,98,0.00,,,0.00,14.000000,,2013-09-24 13:11:00,
2013-09-24 09:22:00,39.0,38.0,-100.00,SW,229,0.0,0.0,98,0.00,,,0.00,14.000000,,2013-09-24 13:22:00,
2013-09-24 10:52:00,49.0,49.0,-100.00,WSW,245,1.0,2.0,99,-99.99,,,0.00,53.000000,,2013-09-24 14:52:00,
2013-09-24 11:01:00,49.0,49.0,-100.00,WSW,245,1.0,2.0,99,-99.99,,,0.00,53.000000,,2013-09-24 15:01:00,
2013-09-24 11:11:00,49.0,49.0,-100.00,WSW,245,1.0,2.0,99,-99.99,,,0.00,53.000000,,2013-09-24 15:11:00,
2013-09-24 11:22:00,49.0,49.0,-100.00,WSW,245,1.0,2.0,99,-99.99,,,0.00,53.000000,,2013-09-24 15:22:00,
2013-09-24 11:23:00,58.0,49.0,-100.00,South,190,2.0,5.0,72,-99.99,,,0.00,549.000000,,2013-09-24 15:23:00,
2013-09-24 11:54:00,58.0,49.0,-100.00,South,190,2.0,5.0,72,-99.99,,,0.00,549.000000,,2013-09-24 15:54:00,
2013-09-24 12:03:00,58.0,49.0,-100.00,South,190,2.0,5.0,72,-99.99,,,0.00,549.000000,,2013-09-24 16:03:00,
2013-09-24 12:13:00,58.0,49.0,-100.00,South,190,2.0,5.0,72,-99.99,,,0.00,549.000000,,2013-09-24 16:13:00,
2013-09-24 12:23:00,60.0,48.0,-100.00,SSE,161,3.0,8.0,65,0.00,,,0.00,519.000000,,2013-09-24 16:23:00,
2013-09-24 12:53:00,60.0,48.0,-100.00,SSE,161,3.0,8.0,65,0.00,,,0.00,519.000000,,2013-09-24 16:53:00,
2013-09-24 13:02:00,60.0,48.0,-100.00,SSE,161,3.0,8.0,65,0.00,,,0.00,519.000000,,2013-09-24 17:02:00,
2013-09-24 13:13:00,60.0,48.0,-100.00,SSE,161,3.0,8.0,65,0.00,,,0.00,519.000000,,2013-09-24 17:13:00,
2013-09-24 13:54:00,65.0,47.0,-100.00,SE,135,3.0,8.0,52,0.00,,,0.00,870.000000,,2013-09-24 17:54:00,
2013-09-24 14:03:00,65.0,47.0,-100.00,SE,135,3.0,8.0,52,0.00,,,0.00,870.000000,,2013-09-24 18:03:00,
2013-09-24 14:12:00,65.0,47.0,-100.00,SE,135,3.0,8.0,52,0.00,,,0.00,870.000000,,2013-09-24 18:12:00,
2013-09-24 14:22:00,65.0,47.0,-100.00,SE,135,3.0,8.0,52,0.00,,,0.00,870.000000,,2013-09-24 18:22:00,
2013-09-24 14:53:00,65.0,45.0,-100.00,SE,132,3.0,8.0,48,0.00,,,0.00,734.000000,,2013-09-24 18:53:00,
2013-09-24 15:02:00,65.0,45.0,-100.00,SE,132,3.0,8.0,48,0.00,,,0.00,734.000000,,2013-09-24 19:02:00,
2013-09-24 15:11:00,65.0,45.0,-100.00,SE,132,3.0,8.0,48,0.00,,,0.00,734.000000,,2013-09-24 19:11:00,
2013-09-24 15:22:00,65.0,45.0,-100.00,SE,132,3.0,8.0,48,0.00,,,0.00,734.000000,,2013-09-24 19:22:00,
2013-09-24 15:52:00,66.0,47.0,-100.00,West,279,2.0,8.0,50,0.00,,,0.00,650.000000,,2013-09-24 19:52:00,
2013-09-24 16:03:00,66.0,47.0,-100.00,West,279,2.0,8.0,50,0.00,,,0.00,650.000000,,2013-09-24 20:03:00,
2013-09-24 16:12:00,66.0,47.0,-100.00,West,279,2.0,8.0,50,0.00,,,0.00,650.000000,,2013-09-24 20:12:00,
2013-09-24 16:22:00,66.0,47.0,-100.00,West,279,2.0,8.0,50,0.00,,,0.00,650.000000,,2013-09-24 20:22:00,
2013-09-24 16:52:00,69.0,50.0,-100.00,SE,130,2.0,5.0,50,0.00,,,0.00,243.000000,,2013-09-24 20:52:00,
2013-09-24 17:02:00,69.0,50.0,-100.00,SE,130,2.0,5.0,50,0.00,,,0.00,243.000000,,2013-09-24 21:02:00,
2013-09-24 17:12:00,69.0,50.0,-100.00,SE,130,2.0,5.0,50,0.00,,,0.00,243.000000,,2013-09-24 21:12:00,
2013-09-24 17:22:00,69.0,50.0,-100.00,SE,130,2.0,5.0,50,0.00,,,0.00,243.000000,,2013-09-24 21:22:00,
2013-09-24 17:23:00,67.0,47.0,-100.00,East,95,2.0,6.0,49,0.00,,,0.00,401.000000,,2013-09-24 21:23:00,
2013-09-24 17:54:00,67.0,47.0,-100.00,East,95,2.0,6.0,49,0.00,,,0.00,401.000000,,2013-09-24 21:54:00,
2013-09-24 18:04:00,67.0,47.0,-100.00,East,95,2.0,6.0,49,0.00,,,0.00,401.000000,,2013-09-24 22:04:00,
2013-09-24 18:13:00,67.0,47.0,-100.00,East,95,2.0,6.0,49,0.00,,,0.00,401.000000,,2013-09-24 22:13:00,
2013-09-24 18:54:00,62.0,50.0,-100.00,ESE,115,2.0,4.0,65,0.00,,,0.00,74.000000,,2013-09-24 22:54:00,
2013-09-24 19:03:00,62.0,50.0,-100.00,ESE,115,2.0,4.0,65,0.00,,,0.00,74.000000,,2013-09-24 23:03:00,
2013-09-24 19:13:00,62.0,50.0,-100.00,ESE,115,2.0,4.0,65,0.00,,,0.00,74.000000,,2013-09-24 23:13:00,
2013-09-24 19:22:00,62.0,50.0,-100.00,ESE,115,2.0,4.0,65,0.00,,,0.00,74.000000,,2013-09-24 23:22:00,
2013-09-24 20:12:00,57.0,53.0,-100.00,ESE,111,2.0,3.0,85,0.00,,,0.00,17.000000,,2013-09-25 00:12:00,
2013-09-24 20:22:00,57.0,53.0,-100.00,ESE,111,2.0,3.0,85,0.00,,,0.00,17.000000,,2013-09-25 00:22:00,
2013-09-24 20:52:00,53.0,50.0,-100.00,East,95,0.0,3.0,91,0.00,,,0.00,0.000000,,2013-09-25 00:52:00,
2013-09-24 21:02:00,53.0,50.0,-100.00,East,95,0.0,3.0,91,0.00,,,0.00,0.000000,,2013-09-25 01:02:00,
2013-09-24 21:12:00,53.0,50.0,-100.00,East,95,0.0,3.0,91,0.00,,,0.00,0.000000,,2013-09-25 01:12:00,
2013-09-24 21:21:00,53.0,50.0,-100.00,East,95,0.0,3.0,91,0.00,,,0.00,0.000000,,2013-09-25 01:21:00,
2013-09-24 21:52:00,52.0,51.0,-100.00,ESE,104,1.0,2.0,96,0.00,,,0.00,0.000000,,2013-09-25 01:52:00,
2013-09-24 22:02:00,52.0,51.0,-100.00,ESE,104,1.0,2.0,96,0.00,,,0.00,0.000000,,2013-09-25 02:02:00,
2013-09-24 22:12:00,52.0,51.0,-100.00,ESE,104,1.0,2.0,96,0.00,,,0.00,0.000000,,2013-09-25 02:12:00,
2013-09-24 22:22:00,52.0,51.0,-100.00,ESE,104,1.0,2.0,96,0.00,,,0.00,0.000000,,2013-09-25 02:22:00,
2013-09-24 22:23:00,51.0,50.0,-100.00,ESE,104,1.0,2.0,97,0.00,,,0.00,0.000000,,2013-09-25 02:23:00,
2013-09-24 22:52:00,51.0,50.0,-100.00,ESE,104,1.0,2.0,97,0.00,,,0.00,0.000000,,2013-09-25 02:52:00,
2013-09-24 23:02:00,51.0,50.0,-100.00,ESE,104,1.0,2.0,97,0.00,,,0.00,0.000000,,2013-09-25 03:02:00,
2013-09-24 23:11:00,51.0,50.0,-100.00,ESE,104,1.0,2.0,97,0.00,,,0.00,0.000000,,2013-09-25 03:11:00,
2013-09-24 23:23:00,49.0,48.0,-100.00,East,93,0.0,0.0,98,0.00,,,-99.99,0.000000,,2013-09-25 03:23:00,
2013-09-24 23:55:00,49.0,48.0,-100.00,East,93,0.0,0.0,98,0.00,,,-99.99,0.000000,,2013-09-25 03:55:00,